Погода в Лоо

Великобритания     50°21′22″N   4°27′06″W
темп.,
°C
ветер,
м/с
пор.,
м/с
влажн.,
%
обл.,
%
осадки,
мм/ч
давл.,
гПа
погр.,
м
8 марта, пн
пн800:00+4св447656 0.0 1026419
03:00+3ссв33740 0.0 1025267
06:00+3ссв33740 0.0 1025226
09:00+4ссв22670 0.0 1025231
12:00+5юз11620 0.0 1026308
15:00+6юз336230 0.0 1024258
18:00+6зсз347123 0.0 1024414
21:00+5сз457527 0.0 1025245
9 марта, вт
вт900:00+5сз227239 0.0 1024186
03:00+5з347298 0.0 1023287
06:00+6з457059 0.0 1022470
09:00+7зюз56693 0.0 1022694
12:00+8ююз677221 0.0 1022662
15:00+8юз81075100 0.0 1020860
18:00+8ююз91077100 0.0 1018766
21:00+8ююз111378100 0.0 1017881
10 марта, ср
ср1000:00+9ююз121682100 0.0 1015879
03:00+9ююз131884100 0.3 1012883
06:00+9ююз142090100 1.2 1010721
09:00+10ююз142092100 1.8 1009649
12:00+10юз131995100 2.9 1008480
15:00+11юз121997100 0.4 1005466
18:00+11юз132096100 0.8 1003572
21:00+11юз162392100 0.5 1001727
11 марта, чт
чт1100:00+11зюз142382100 1.3 10001238
03:00+10зюз16257588 0.3 9991717
06:00+9зюз17247192 0.5 10001678
09:00+9з13197263 0.3 10021525
12:00+9з14197082 1.0 10051609
15:00+9з15206662 0.7 10061842
18:00+8з13186731 0.8 10081683
21:00+8з12157134 0.1 10101416
12 марта, пт
пт1200:00+8з12156965 0.3 10101483
03:00+8зюз12177333 0.1 10091427
06:00+9зюз13187267 0.3 10071343
09:00+9з131778100 0.6 10071398
12:00+9з101471100 1.4 10071421
15:00+9з11146996 0.5 10071497
18:00+8з12167393 1.1 10071493
21:00+8з101376100 0.2 10081269